Regional Weather Roundup
Issued by NWS Jackson, KY

Home | Current Version | Previous Version | Text Only | Print | Product List | Glossary Off
Versions: 1 2 3 4 5 6 7 8 9 10 11 12 13 14 15 16 17 18 19 20 21 22 23 24 25 26 27

000
ASUS43 KJKL 191710
RWRJKL

EAST KENTUCKY HOURLY WEATHER ROUNDUP
NATIONAL WEATHER SERVICE JACKSON KY
100 PM EDT TUE SEP 19 2017

NOTE: "FAIR" INDICATES FEW OR NO CLOUDS BELOW 12,000 FEET WITH
NO SIGNIFICANT WEATHER AND/OR OBSTRUCTIONS TO VISIBILITY.

* THESE REPORTS ARE NOT UNDER NWS QUALITY CONTROL AND MAY NOT
  REPORT WEATHER SUCH AS PRECIPITATION AND FOG.

KYZ079-080-083-085-087-088-110-112-115-119-120-191800
...EASTERN KENTUCKY...

CITY           SKY/WX    TMP DP  RH WIND       PRES   REMARKS
JACKSON        MOSUNNY   81  66  60 CALM      30.05F
LONDON         CLOUDY    80  64  58 W6        30.05F
SOMERSET*      CLOUDY    79  64  61 W6        30.05S
MONTICELLO*    CLOUDY    82  69  64 VRB7G17   30.04F
WILLIAMSBURG*  PTSUNNY   81  66  61 SW5       30.04F
MIDDLESBORO*   MOSUNNY   81  65  57 SW5       30.05F
HARLAN APT*    MOSUNNY   81  61  50 CALM      30.07F
PIKE CO APT*   CLOUDY    78  63  60 SW5       30.06S
BIG SANDY APT* CLOUDY    78  65  62 SW3       30.04F
MOREHEAD APT*  CLOUDY    73  64  73 NW13G21   30.06S
$$

KYZ035-036-041-042-044-050-067-078-099-191800
...CENTRAL KENTUCKY...

CITY           SKY/WX    TMP DP  RH WIND       PRES   REMARKS
MT STERLING*   CLOUDY    73  68  83 N6        30.06S
FLEMING/MASON* LGT RAIN  69  68  96 NW3       30.05F
DANVILLE*      LGT RAIN  70  68  94 N6        30.06S
LEXINGTON      TSTM      69  66  90 SW9       30.07R VSB 1
FRANKFORT      RAIN      69  67  93 SE6       29.99F FOG
LOUISVILLE     CLOUDY    72  68  87 SE8       29.99S
LEBANON*       LGT RAIN  68  66  94 E8        30.01F
GLASGOW*       MOSUNNY   70  70 100 E3        30.03F
BOWLING GREEN  CLOUDY    74  70  87 NE8       30.01F
$$

KYZ091>093-OHZ055-061-077-WVZ005-015-034-035-042-191800
...SOUTHERN OHIO/WEST VIRGINIA...

CITY           SKY/WX    TMP DP  RH WIND       PRES   REMARKS
COVINGTON      LGT RAIN  68  68 100 SW5       30.01F
COLUMBUS       CLOUDY    76  67  73 S6        30.01S
DAYTON         CLOUDY    71  67  87 S10       30.01F
WILMINGTON     RAIN      68  68 100 S6        30.03S FOG
HUNTINGTON     CLOUDY    77  66  68 SW3       30.02S
CHARLESTON     PTSUNNY   81  65  58 CALM      30.02F
PINEVILLE*     MOSUNNY   79  62  56 MISG      30.11F
BECKLEY        CLOUDY    75  59  57 CALM      30.09F
BLUEFIELD      MOSUNNY   76  55  48 NW6       30.12F
LOGAN CO APT*  CLOUDY    75  66  73 CALM      30.06S
$$

VAZ002-007-008-TNZ017-027-036-066-071-191800
...SOUTHWEST VIRGINIA/EAST TENNESSEE...

CITY           SKY/WX    TMP DP  RH WIND       PRES   REMARKS
WISE*          MOSUNNY   77  55  47 W8        30.12F
JONESVILLE*      N/A     81  61  50 W8        30.09S
ABINGDON*      SUNNY     80  60  50 W8        30.09S
BRISTOL        MOSUNNY   81  62  52 NW6       30.07S
MORRISTOWN*    SUNNY     81  63  54 NW10      30.05F
SEVIERVILLE*   SUNNY     82  63  51 W6        30.04F
KNOXVILLE      MOSUNNY   81  63  54 W5        30.04F
LAFOLLETTE*    SUNNY     81  68  65 CALM      30.08F
OAK RIDGE      SUNNY     81  64  56 S3        30.05F
CROSSVILLE     PTSUNNY   79  65  62 W7        30.07F
NASHVILLE      PTSUNNY   81  70  69 NE8       30.00F
$$

...KEY TO REMARKS...
VSB - VISIBILITY IN MILES
WCI - WIND CHILL INDEX
HX  - HEAT INDEX

$$




USA.gov is the U.S. government's official web portal to all federal, state and local government web resources and services.